SL-16 DEB

Satellite information

Favourite Embed

Satellite Type and Status

DEBRISIN ORBIT

Key statistics

Satellite SL-16 DEB at a glance.

Uptime

11937

Days in orbit

Revolutions

≈ 14.0

Per day

Orbit

LEO

Low Earth Orbit

Inclination

70.9

Latest

Satellite identification and parameters

Extended collection of information and parameters for SL-16 DEB.

Object identification

Identified? True

Debris? True

Object name: SL-16 DEB

International designator: 1992-093U

Object number (NORAD): 22331

Object ID (CCSDS): 22331

Country: COMMONWEALTH OF INDEPENDENT STATES (CIS)

Current information (Y/N): Y

RCS size: MEDIUM

Orbital parameters

Period: 102.496 minutes

Inclination: 70.9251 deg

SMA: 7254.902 km

Apoapsis: 932.381 km

Periapsis: 821.153 km

RAAN: 354.1066 deg

Eccentricy: 0.00766572

Argument of periapsis: 0.0831 deg

Mean anomaly: 110.0107 deg

Mean motion: 14.04932397 rev/day

Mean motion (dot): -0.00000052 rev/day2

B* drag term: -0.000002895638 1/REarth

Two-line elements (TLE)

Creation date: Aug. 31, 2025, 2:26 a.m.

Reference frame: TEME

Reference center: EARTH

Epoch: Aug. 30, 2025, 6:05 p.m. UTC

TLE line 0: 0 SL-16 DEB

TLE line 1: 1 22331U 92093U 25242.75369475 -.00000052 00000-0 -28956-5 0 9999

TLE line 2: 2 22331 70.9251 354.1066 0076657 0.0831 110.0107 14.04932397674284

Live tracking on map

Real-time ground track for satellite SL-16 DEB.

In-orbit conjunctions

A list of the most updated potential collisions computed for object SL-16 DEB.

Target Orbit TCA Probability of collision Miss distance Type
FENGYUN 1C DEB SSO 2025-03-24 22:24:29 0.0001833513 104.0 (m) DEBRIS
CZ-6A DEB LEO 2024-11-16 19:31:06 0.0001476545 919.0 (m) DEBRIS
COSMOS 2251 DEB LEO 2024-08-29 22:19:26 0.0002513518 21.0 (m) DEBRIS

Associated space launch

Second generation ELING satellite

SL-16 DEB was lifted into orbit during the mission ‘Zenit-2 | Tselina-2 12’, on board a Zenit-2 space rocket.

The launch took place on Dec. 25, 1992, 5:56 a.m. from 45/1.

For more information about the launch, click the button.

Launch to space Zenit-2 | Tselina-2 12
Zenit-2 | Tselina-2 12

Agency: N/A

Status: Launch Successful

Launch date: Dec. 25, 1992, 5:56 a.m. UTC

Rocket: Zenit-2

Launch pad: 45/1

Location: Baikonur Cosmodrome, Republic of Kazakhstan

...

Latest news about this satellite

There are no fresh news available about this satellite. Check back as we update our databases every day.


Newsletter sign-up

Weekly statistics, charts and insights to help you stay on top of the space industry.